Rochester/St. Mary\'s Hospita, MN

5:46 AM CDT on June 25, 2018 (GMT -0500)
Rochester/St. Mary\'s Hospita

Weather History for K9MN - October, 2017

Change the Weather History Date:

Friday, October 20, 2017

  Actual Average (KRST) Record (KRST)
Temperature  
Mean Temperature 64 °F -  
Max Temperature 75 °F 56 °F 82 °F (1953)
Min Temperature 54 °F 34 °F 12 °F (1952)
Growing Degree Days 14 (Base 50)    
Moisture  
Dew Point 47 °F    
Average Humidity 58    
Maximum Humidity 83    
Minimum Humidity 29    
Precipitation  
Precipitation 0.00 in - - ()
Sea Level Pressure  
Sea Level Pressure 29.91 in    
Wind  
Wind Speed 12 mph (SSE)    
Max Wind Speed 21 mph    
Max Gust Speed 33 mph    
Visibility 10 miles    
Events      
Averages and records for this station are not official NWS values.
T = Trace of Precipitation, MM = Missing Value Source: NWS Daily Summary

Daily Weather History Graph

Daily Weather History Graph

Search for Another Location

Airport or City:

Astronomy

Oct. 20, 2017 Rise Set
Actual Time 7:31 AM CDT 6:17 PM CDT
Civil Twilight 7:01 AM CDT 6:46 PM CDT
Nautical Twilight 6:28 AM CDT 7:20 PM CDT
Astronomical Twilight 5:54 AM CDT 7:53 PM CDT
Moon 8:10 AM CDT (10/20) 7:12 PM CDT (10/20)
Length of Visible Light 11h 44m
Length of Day
10h 46m
New Moon, 1% of the Moon is Illuminated
Oct 20
New Moon
Oct 27
First Quarter
Nov 4
Full
Nov 10
Last Quarter
Nov 18
New

Hourly Weather History & Observations

Time (CDT) Temp. Dew Point Humidity Pressure Visibility Wind Dir Wind Speed Gust Speed Precip Events Conditions
12:11 AM 57.7 °F 45.1 °F 63% 29.99 in 10.0 mi SE 11.5 mph - N/A   Clear
12:32 AM 57.4 °F 45.9 °F 65% 29.99 in 10.0 mi SE 11.5 mph 16.1 mph N/A   Clear
12:51 AM 57.2 °F 46.6 °F 68% 29.99 in 10.0 mi SE 9.2 mph - N/A   Clear
1:12 AM 56.5 °F 47.3 °F 71% 29.99 in 10.0 mi SE 10.4 mph - N/A   Clear
1:32 AM 56.3 °F 48.2 °F 74% 29.99 in 10.0 mi SE 8.1 mph - N/A   Clear
1:51 AM 55.9 °F 48.4 °F 76% 29.99 in 10.0 mi SE 8.1 mph - N/A   Clear
2:12 AM 55.9 °F 48.9 °F 77% 29.99 in 10.0 mi SE 6.9 mph - N/A   Clear
2:32 AM 55.9 °F 49.1 °F 78% 29.98 in 10.0 mi SE 6.9 mph - N/A   Clear
2:51 AM 56.3 °F 49.5 °F 78% 29.98 in 10.0 mi SE 8.1 mph - N/A   Clear
3:12 AM 56.3 °F 49.3 °F 77% 29.98 in 10.0 mi SE 8.1 mph - N/A   Clear
3:32 AM 55.8 °F 49.6 °F 80% 29.98 in 10.0 mi SE 8.1 mph - N/A   Clear
3:51 AM 55.9 °F 50.0 °F 80% 29.97 in 10.0 mi SSE 9.2 mph - N/A   Clear
4:12 AM 56.3 °F 49.6 °F 78% 29.97 in 10.0 mi SSE 8.1 mph - N/A   Clear
4:32 AM 56.3 °F 49.6 °F 78% 29.97 in 10.0 mi SSE 10.4 mph - N/A   Clear
4:51 AM 56.3 °F 49.8 °F 79% 29.97 in 10.0 mi SSE 10.4 mph 16.1 mph N/A   Clear
5:12 AM 55.9 °F 50.0 °F 80% 29.97 in 10.0 mi SSE 10.4 mph - N/A   Clear
5:32 AM 55.6 °F 50.0 °F 81% 29.97 in 10.0 mi SSE 9.2 mph - N/A   Clear
5:51 AM 55.8 °F 50.0 °F 81% 29.97 in 10.0 mi SSE 10.4 mph - N/A   Clear
6:12 AM 55.9 °F 49.8 °F 80% 29.97 in 10.0 mi SSE 10.4 mph - N/A   Clear
6:32 AM 56.5 °F 49.6 °F 78% 29.97 in 10.0 mi SSE 11.5 mph - N/A   Clear
6:51 AM 55.4 °F 49.6 °F 81% 29.98 in 10.0 mi SSE 10.4 mph - N/A   Clear
7:12 AM 54.9 °F 49.6 °F 83% 29.98 in 10.0 mi SE 10.4 mph - N/A   Clear
7:32 AM 55.2 °F 49.6 °F 81% 29.98 in 10.0 mi SSE 9.2 mph - N/A   Clear
7:51 AM 55.0 °F 49.5 °F 81% 29.98 in 10.0 mi SE 9.2 mph - N/A   Clear
8:12 AM 55.0 °F 49.5 °F 81% 29.98 in 10.0 mi SSE 10.4 mph - N/A   Clear
8:32 AM 55.9 °F 50.0 °F 80% 29.99 in 10.0 mi SSE 8.1 mph - N/A   Clear
8:51 AM 57.4 °F 50.0 °F 76% 29.99 in 10.0 mi SSE 9.2 mph - N/A   Clear
9:12 AM 59.5 °F 50.4 °F 72% 29.98 in 10.0 mi SSE 8.1 mph - N/A   Clear
9:32 AM 61.3 °F 50.5 °F 68% 29.98 in 10.0 mi South 10.4 mph - N/A   Clear
9:51 AM 62.6 °F 50.9 °F 66% 29.98 in 10.0 mi South 10.4 mph 17.3 mph N/A   Clear
10:12 AM 64.4 °F 50.7 °F 61% 29.98 in 10.0 mi South 12.7 mph 17.3 mph N/A   Clear
10:31 AM 65.8 °F 50.4 °F 57% 29.97 in 10.0 mi South 13.8 mph 19.6 mph N/A   Clear
10:52 AM 67.1 °F 50.2 °F 55% 29.97 in 10.0 mi South 16.1 mph 23.0 mph N/A   Clear
11:12 AM 67.1 °F 50.0 °F 54% 29.96 in 10.0 mi South 13.8 mph 23.0 mph N/A   Clear
11:31 AM 67.5 °F 50.4 °F 54% 29.95 in 10.0 mi South 9.2 mph - N/A   Clear
11:52 AM 68.9 °F 50.2 °F 51% 29.95 in 10.0 mi SSE 11.5 mph 17.3 mph N/A   Clear
12:12 PM 69.6 °F 50.0 °F 50% 29.94 in 10.0 mi South 15.0 mph 21.9 mph N/A   Clear
12:31 PM 71.2 °F 50.0 °F 47% 29.93 in 10.0 mi SSE 13.8 mph 20.7 mph N/A   Clear
12:52 PM 72.1 °F 47.5 °F 41% 29.92 in 10.0 mi South 18.4 mph 25.3 mph N/A   Clear
1:12 PM 72.7 °F 46.6 °F 39% 29.91 in 10.0 mi SSE 20.7 mph 29.9 mph N/A   Clear
1:31 PM 73.4 °F 46.4 °F 38% 29.90 in 10.0 mi SSE 11.5 mph 28.8 mph N/A   Clear
1:52 PM 73.6 °F 44.8 °F 36% 29.89 in 10.0 mi SSE 18.4 mph 26.5 mph N/A   Clear
2:12 PM 73.2 °F 44.8 °F 36% 29.88 in 10.0 mi South 16.1 mph 27.6 mph N/A   Clear
2:31 PM 73.9 °F 46.0 °F 37% 29.87 in 10.0 mi South 11.5 mph 21.9 mph N/A   Clear
2:52 PM 75.6 °F 44.2 °F 33% 29.85 in 10.0 mi SSE 18.4 mph 27.6 mph N/A   Clear
3:12 PM 74.8 °F 41.9 °F 31% 29.85 in 10.0 mi SSE 17.3 mph 26.5 mph N/A   Clear
3:32 PM 74.8 °F 42.4 °F 31% 29.85 in 10.0 mi SSE 17.3 mph 27.6 mph N/A   Clear
3:52 PM 73.9 °F 42.3 °F 32% 29.84 in 10.0 mi SSE 15.0 mph 29.9 mph N/A   Clear
4:12 PM 74.5 °F 40.5 °F 29% 29.83 in 10.0 mi SSE 12.7 mph 33.4 mph N/A   Clear
4:32 PM 73.4 °F 40.6 °F 31% 29.83 in 10.0 mi SSE 12.7 mph 26.5 mph N/A   Clear
4:52 PM 73.0 °F 41.7 °F 32% 29.82 in 10.0 mi SE 18.4 mph 31.1 mph N/A   Clear
5:12 PM 73.0 °F 40.3 °F 31% 29.82 in 10.0 mi SSE 15.0 mph 27.6 mph N/A   Clear
5:32 PM 72.0 °F 41.9 °F 34% 29.82 in 10.0 mi SSE 13.8 mph 25.3 mph N/A   Clear
5:52 PM 70.7 °F 42.1 °F 35% 29.81 in 10.0 mi SSE 11.5 mph 24.2 mph N/A   Clear
6:11 PM 69.8 °F 43.2 °F 38% 29.81 in 10.0 mi SE 11.5 mph 19.6 mph N/A   Clear
6:32 PM 68.9 °F 43.2 °F 39% 29.80 in 10.0 mi SE 12.7 mph 20.7 mph N/A   Clear
6:52 PM 68.4 °F 43.9 °F 41% 29.81 in 10.0 mi SE 13.8 mph 25.3 mph N/A   Clear
7:11 PM 67.6 °F 44.6 °F 43% 29.81 in 10.0 mi SE 15.0 mph 26.5 mph N/A   Clear
7:32 PM 66.9 °F 44.6 °F 45% 29.81 in 10.0 mi SSE 13.8 mph 21.9 mph N/A   Clear
7:52 PM 66.4 °F 44.2 °F 45% 29.82 in 10.0 mi SE 16.1 mph 27.6 mph N/A   Clear
8:11 PM 65.8 °F 44.2 °F 46% 29.81 in 10.0 mi SSE 10.4 mph 20.7 mph N/A   Clear
8:32 PM 65.7 °F 44.6 °F 47% 29.81 in 10.0 mi SSE 15.0 mph 23.0 mph N/A   Clear
8:52 PM 65.3 °F 45.0 °F 48% 29.81 in 10.0 mi SSE 15.0 mph 25.3 mph N/A   Clear
9:11 PM 64.9 °F 45.5 °F 49% 29.81 in 10.0 mi SSE 15.0 mph 25.3 mph N/A   Clear
9:32 PM 64.4 °F 45.9 °F 51% 29.81 in 10.0 mi SSE 16.1 mph 24.2 mph N/A   Clear
9:52 PM 63.7 °F 46.4 °F 53% 29.81 in 10.0 mi SSE 15.0 mph 23.0 mph N/A   Clear
10:11 PM 63.7 °F 46.4 °F 53% 29.81 in 10.0 mi SSE 16.1 mph 26.5 mph N/A   Clear
10:32 PM 63.1 °F 46.8 °F 55% 29.82 in 10.0 mi SSE 15.0 mph 26.5 mph N/A   Clear
10:52 PM 63.1 °F 46.9 °F 55% 29.81 in 10.0 mi SSE 16.1 mph 31.1 mph N/A   Clear
11:11 PM 63.5 °F 47.3 °F 56% 29.81 in 10.0 mi SSE 17.3 mph 25.3 mph N/A   Clear
11:32 PM 63.5 °F 47.5 °F 56% 29.81 in 10.0 mi SSE 18.4 mph 29.9 mph N/A   Clear
11:52 PM 63.1 °F 47.3 °F 56% 29.81 in 10.0 mi SSE 17.3 mph 27.6 mph N/A   Clear